• In Deutschland
  • Länderverzeichnis
  • Für 7 Tage
  • Wassertemperatur
  • Satellitenkarten
  • Wetterkarte
  • Widgets
  • user-avatar
    Anmelden

    Stündliche Wetter Trypolis

    Heute, 26 September, Dienstag

    Zeit Temperatur Niederschläge Wind Luftdruck Luftfeuchtigkeit
    00:00 +26°C° 0 mm 3 m/S 762 mmHg 73%
    01:00 +26°C° 0 mm 2 m/S 762 mmHg 75%
    02:00 +26°C° 0 mm 2 m/S 762 mmHg 76%
    03:00 +25°C° 0 mm 2 m/S 762 mmHg 77%
    04:00 +25°C° 0 mm 2 m/S 762 mmHg 78%
    05:00 +25°C° 0 mm 2 m/S 762 mmHg 77%
    06:00 +25°C° 0 mm 2 m/S 762 mmHg 76%
    07:00 +25°C° 0 mm 2 m/S 762 mmHg 75%
    08:00 +27°C° 0 mm 2 m/S 762 mmHg 67%
    09:00 +28°C° 0 mm 1 m/S 762 mmHg 58%
    10:00 +30°C° 0 mm 1 m/S 762 mmHg 50%
    11:00 +31°C° 0 mm 2 m/S 762 mmHg 45%
    12:00 +33°C° 0 mm 3 m/S 762 mmHg 39%
    13:00 +35°C° 0 mm 4 m/S 762 mmHg 34%
    14:00 +34°C° 0 mm 4 m/S 762 mmHg 37%
    15:00 +34°C° 0 mm 5 m/S 761 mmHg 40%
    16:00 +33°C° 0 mm 6 m/S 761 mmHg 43%
    17:00 +32°C° 0 mm 6 m/S 761 mmHg 49%
    18:00 +30°C° 0 mm 6 m/S 761 mmHg 56%
    19:00 +28°C° 0 mm 6 m/S 761 mmHg 63%
    20:00 +28°C° 0 mm 6 m/S 762 mmHg 64%
    21:00 +28°C° 0 mm 6 m/S 762 mmHg 65%
    22:00 +28°C° 0 mm 6 m/S 762 mmHg 67%
    23:00 +27°C° 0 mm 6 m/S 762 mmHg 66%

    Morgen, 27 September, Mittwoch

    Zeit Temperatur Niederschläge Wind Luftdruck Luftfeuchtigkeit
    00:00 +27°C° 0 mm 6 m/S 762 mmHg 66%
    01:00 +27°C° 0 mm 5 m/S 762 mmHg 66%
    02:00 +27°C° 0 mm 5 m/S 762 mmHg 68%
    03:00 +27°C° 0 mm 5 m/S 762 mmHg 69%
    04:00 +26°C° 0 mm 5 m/S 761 mmHg 70%
    05:00 +26°C° 0 mm 5 m/S 762 mmHg 70%
    06:00 +26°C° 0 mm 5 m/S 762 mmHg 69%
    07:00 +26°C° 0 mm 5 m/S 762 mmHg 69%
    08:00 +29°C° 0 mm 5 m/S 762 mmHg 57%
    09:00 +32°C° 0 mm 5 m/S 762 mmHg 45%
    10:00 +34°C° 0 mm 5 m/S 762 mmHg 34%
    11:00 +36°C° 0 mm 5 m/S 762 mmHg 30%
    12:00 +37°C° 0 mm 5 m/S 762 mmHg 26%
    13:00 +39°C° 0 mm 5 m/S 761 mmHg 22%
    14:00 +39°C° 0 mm 6 m/S 761 mmHg 22%
    15:00 +39°C° 0 mm 6 m/S 761 mmHg 23%
    16:00 +39°C° 0 mm 7 m/S 760 mmHg 23%
    17:00 +37°C° 0,3 mm 8 m/S 761 mmHg 26%
    18:00 +35°C° 0,3 mm 9 m/S 761 mmHg 28%
    19:00 +34°C° 0,3 mm 10 m/S 761 mmHg 31%
    20:00 +33°C° 0,1 mm 9 m/S 761 mmHg 34%
    21:00 +32°C° 0,1 mm 9 m/S 762 mmHg 37%
    22:00 +31°C° 0,1 mm 9 m/S 762 mmHg 40%
    23:00 +31°C° 0 mm 8 m/S 762 mmHg 42%

    übermorgen, 28 September, Donnerstag

    Zeit Temperatur Niederschläge Wind Luftdruck Luftfeuchtigkeit
    00:00 +29°C° 0 mm 7 m/S 762 mmHg 44%
    01:00 +29°C° 0 mm 7 m/S 762 mmHg 46%
    02:00 +28°C° 0,2 mm 7 m/S 762 mmHg 49%
    03:00 +28°C° 0,2 mm 7 m/S 762 mmHg 52%
    04:00 +27°C° 0,2 mm 7 m/S 762 mmHg 54%
    05:00 +27°C° 0,2 mm 6 m/S 762 mmHg 56%
    06:00 +27°C° 0,2 mm 6 m/S 762 mmHg 57%
    07:00 +27°C° 0,2 mm 5 m/S 763 mmHg 59%
    08:00 +28°C° 0,2 mm 5 m/S 763 mmHg 54%
    09:00 +29°C° 0,2 mm 4 m/S 763 mmHg 50%
    10:00 +32°C° 0,2 mm 4 m/S 764 mmHg 46%
    11:00 +32°C° 0 mm 4 m/S 763 mmHg 43%
    12:00 +33°C° 0 mm 4 m/S 763 mmHg 39%
    13:00 +34°C° 0 mm 5 m/S 763 mmHg 36%
    14:00 +34°C° 0,1 mm 6 m/S 763 mmHg 39%
    15:00 +33°C° 0,1 mm 7 m/S 762 mmHg 41%
    16:00 +32°C° 0,1 mm 8 m/S 762 mmHg 44%
    17:00 +30°C° 0 mm 7 m/S 762 mmHg 50%
    18:00 +29°C° 0 mm 7 m/S 763 mmHg 56%
    19:00 +28°C° 0 mm 7 m/S 763 mmHg 62%
    20:00 +28°C° 0,2 mm 6 m/S 763 mmHg 62%
    21:00 +27°C° 0,2 mm 5 m/S 764 mmHg 63%
    22:00 +27°C° 0,2 mm 5 m/S 764 mmHg 64%
    23:00 +27°C° 0 mm 4 m/S 764 mmHg 64%

    29 September, Freitag

    Zeit Temperatur Niederschläge Wind Luftdruck Luftfeuchtigkeit
    00:00 +26°C° 0 mm 3 m/S 763 mmHg 65%
    01:00 +26°C° 0 mm 3 m/S 763 mmHg 65%
    02:00 +26°C° 0 mm 3 m/S 763 mmHg 67%
    03:00 +25°C° 0 mm 3 m/S 763 mmHg 68%
    04:00 +25°C° 0 mm 2 m/S 762 mmHg 69%
    05:00 +25°C° 0 mm 2 m/S 763 mmHg 69%
    06:00 +25°C° 0 mm 2 m/S 763 mmHg 69%
    07:00 +25°C° 0 mm 2 m/S 763 mmHg 69%
    08:00 +26°C° 0 mm 2 m/S 763 mmHg 64%
    09:00 +27°C° 0 mm 2 m/S 763 mmHg 59%
    10:00 +28°C° 0 mm 2 m/S 763 mmHg 55%
    11:00 +28°C° 0 mm 3 m/S 763 mmHg 51%
    12:00 +29°C° 0 mm 3 m/S 763 mmHg 47%
    13:00 +30°C° 0 mm 4 m/S 762 mmHg 43%
    14:00 +29°C° 0 mm 4 m/S 762 mmHg 44%
    15:00 +29°C° 0 mm 4 m/S 762 mmHg 45%
    16:00 +29°C° 0 mm 4 m/S 761 mmHg 45%
    17:00 +28°C° 0 mm 4 m/S 762 mmHg 48%
    18:00 +27°C° 0 mm 4 m/S 762 mmHg 50%
    19:00 +27°C° 0 mm 4 m/S 762 mmHg 53%
    20:00 +26°C° 0 mm 3 m/S 763 mmHg 54%
    21:00 +26°C° 0 mm 3 m/S 763 mmHg 55%
    22:00 +26°C° 0 mm 3 m/S 763 mmHg 56%
    23:00 +26°C° 0 mm 3 m/S 763 mmHg 58%

    30 September, Samstag

    Zeit Temperatur Niederschläge Wind Luftdruck Luftfeuchtigkeit
    00:00 +25°C° 0 mm 3 m/S 762 mmHg 60%
    01:00 +25°C° 0 mm 2 m/S 762 mmHg 63%
    02:00 +25°C° 0,1 mm 2 m/S 762 mmHg 65%
    03:00 +24°C° 0,1 mm 2 m/S 761 mmHg 66%
    04:00 +24°C° 0,1 mm 2 m/S 761 mmHg 68%
    05:00 +24°C° 0,2 mm 2 m/S 761 mmHg 68%
    06:00 +24°C° 0,2 mm 2 m/S 762 mmHg 68%
    07:00 +24°C° 0,2 mm 2 m/S 762 mmHg 69%
    08:00 +25°C° 0,2 mm 2 m/S 762 mmHg 64%
    09:00 +26°C° 0,2 mm 2 m/S 762 mmHg 60%
    10:00 +27°C° 0,2 mm 3 m/S 762 mmHg 56%
    11:00 +28°C° 0,1 mm 3 m/S 762 mmHg 53%
    12:00 +28°C° 0,1 mm 4 m/S 761 mmHg 50%
    13:00 +29°C° 0,1 mm 4 m/S 761 mmHg 47%
    14:00 +29°C° 0,1 mm 4 m/S 761 mmHg 49%
    15:00 +28°C° 0,1 mm 5 m/S 761 mmHg 50%
    16:00 +28°C° 0,1 mm 5 m/S 760 mmHg 51%
    17:00 +27°C° 0 mm 4 m/S 761 mmHg 55%
    18:00 +27°C° 0 mm 4 m/S 761 mmHg 59%
    19:00 +26°C° 0 mm 4 m/S 761 mmHg 63%
    20:00 +26°C° 0 mm 3 m/S 761 mmHg 64%
    21:00 +25°C° 0 mm 3 m/S 762 mmHg 65%
    22:00 +25°C° 0 mm 2 m/S 762 mmHg 66%
    23:00 +25°C° 0 mm 2 m/S 762 mmHg 67%

    1 Oktober, Sonntag

    Zeit Temperatur Niederschläge Wind Luftdruck Luftfeuchtigkeit
    00:00 +24°C° 0 mm 1 m/S 761 mmHg 68%
    01:00 +24°C° 0 mm 1 m/S 761 mmHg 69%
    02:00 +24°C° 0 mm 1 m/S 761 mmHg 71%
    03:00 +23°C° 0 mm 1 m/S 761 mmHg 72%
    04:00 +23°C° 0 mm 2 m/S 761 mmHg 73%
    05:00 +23°C° 0 mm 2 m/S 761 mmHg 72%
    06:00 +23°C° 0 mm 2 m/S 761 mmHg 71%
    07:00 +23°C° 0 mm 2 m/S 762 mmHg 70%
    08:00 +24°C° 0 mm 2 m/S 762 mmHg 64%
    09:00 +25°C° 0 mm 2 m/S 762 mmHg 58%
    10:00 +26°C° 0 mm 1 m/S 762 mmHg 52%
    11:00 +27°C° 0 mm 2 m/S 762 mmHg 47%
    12:00 +28°C° 0 mm 2 m/S 762 mmHg 43%
    13:00 +29°C° 0 mm 2 m/S 762 mmHg 38%
    14:00 +29°C° 0 mm 3 m/S 762 mmHg 38%
    15:00 +29°C° 0 mm 3 m/S 761 mmHg 38%
    16:00 +30°C° 0 mm 4 m/S 761 mmHg 38%
    17:00 +28°C° 0 mm 4 m/S 761 mmHg 44%
    18:00 +27°C° 0 mm 4 m/S 762 mmHg 50%
    19:00 +26°C° 0 mm 4 m/S 762 mmHg 55%
    20:00 +26°C° 0 mm 4 m/S 762 mmHg 57%
    21:00 +26°C° 0 mm 4 m/S 762 mmHg 58%
    22:00 +25°C° 0 mm 3 m/S 762 mmHg 59%
    23:00 +25°C° 0 mm 3 m/S 762 mmHg 60%
    Mehr zeigen